Wind_Speed
1 1 0 1 2 2 3 3 2 3 3 3 2 3 2 2 2 3 2 3 2 2 3 3 3 3 3 3 3 3 4 4 3 3 3 2 2 2 2 3 2 2 2
1 1 1 1 2 2 2 2 2 3 3 3 2 2 2 2 2 3 3 3 3 3 4 4 4 3 4 3 3 4 4 5 5 4 3 3 2 2 3 3 3 3 2
1 1 1 1 2 2 2 2 2 3 3 3 3 3 3 3 3 3 3 3 3 4 4 4 3 3 4 3 3 4 4 5 5 4 4 3 3 3 3 3 2 3 3
1 1 2 2 1 2 2 2 2 2 3 3 3 4 3 3 3 3 4 3 3 4 4 4 4 3 3 3 3 3 2 2 4 4 4 4 3 3 3 3 2 2 3
2 2 2 2 2 2 3 3 3 3 3 3 3 4 3 3 2 3 3 3 3 4 4 4 3 3 3 3 3 3 3 2 3 4 3 3 3 4 3 3 3 3 3
2 2 3 3 3 3 3 3 3 4 4 5 5 4 4 4 3 3 3 3 4 4 4 3 3 3 3 2 3 3 3 3 3 4 4 4 4 4 4 3 3 3 3
3 3 3 3 3 4 4 4 4 4 5 6 5 5 4 4 3 3 3 3 3 3 3 3 3 2 2 3 3 3 2 3 4 4 4 4 4 4 4 4 4 3 3
3 4 4 3 3 3 3 3 4 5 6 6 6 5 5 4 4 4 4 4 4 3 3 3 3 3 2 3 3 3 3 3 4 4 4 4 4 4 4 4 4 4 4
4 4 4 4 4 3 3 4 5 6 6 5 6 5 5 4 4 4 4 4 4 4 4 3 3 3 2 2 2 3 3 4 5 5 5 5 5 5 5 4 4 4 4
4 4 4 4 4 4 4 4 4 5 5 5 5 5 5 5 5 5 5 5 5 4 4 4 3 3 2 2 2 3 3 4 5 5 5 6 5 5 5 5 5 5 5
3 4 4 4 4 4 3 4 5 5 6 6 6 5 5 5 5 5 5 5 4 4 5 5 4 3 3 3 3 3 3 3 5 5 5 5 5 5 5 5 6 6 6
4 4 4 4 4 4 4 5 5 5 6 6 6 5 5 5 5 5 4 4 4 4 4 4 4 3 3 3 3 3 3 3 4 4 5 5 5 5 6 6 6 6 7
4 4 4 4 4 5 5 5 6 6 6 6 6 6 5 5 5 5 5 5 4 4 4 3 3 3 4 4 4 4 4 4 4 5 5 5 5 5 5 5 6 6 6
5 4 5 5 5 5 6 6 6 6 6 6 6 5 5 5 5 5 5 5 4 4 4 4 4 4 5 5 4 4 5 4 4 5 5 5 5 5 5 5 5 5 6
6 6 6 6 5 5 6 6 6 6 6 6 5 6 6 5 5 4 4 5 5 5 5 5 5 5 5 5 5 5 5 4 4 4 4 5 5 5 5 5 6 6 6
7 6 6 7 6 6 6 6 5 6 6 6 5 6 5 5 5 5 4 5 6 5 5 5 5 5 5 5 5 5 4 4 4 4 5 5 5 5 6 6 7 7 6
7 7 7 7 7 7 7 5 5 5 5 5 5 5 5 5 5 4 4 4 5 5 5 4 4 5 5 5 4 5 4 5 4 4 5 5 6 6 6 6 6 6 6
8 7 7 7 7 7 6 5 5 5 5 5 5 5 5 5 4 4 4 4 5 5 5 5 4 4 4 5 4 5 5 5 5 5 5 6 7 7 7 6 6 6 6
8 8 8 8 8 7 6 6 6 6 6 6 5 5 5 5 4 4 4 5 5 5 5 4 4 4 4 5 4 4 5 5 5 6 6 7 7 6 6 6 6 7 7
8 8 8 8 8 8 7 7 7 6 6 6 5 4 4 4 4 4 5 5 5 5 5 4 4 4 4 4 4 4 4 5 5 6 6 6 6 6 6 6 6 7 7
8 8 8 8 8 8 8 7 7 7 7 6 5 5 5 5 4 4 5 5 5 5 4 4 4 4 4 4 4 4 4 5 5 5 5 5 5 6 6 6 6 6 7
8 8 9 9 9 8 8 7 8 7 7 7 6 6 5 5 4 5 5 5 5 5 4 3 4 4 4 5 4 4 4 5 5 5 5 5 5 6 6 6 7 7 7
9 9 9 9 9 8 8 8 8 8 8 7 6 6 6 6 6 5 5 5 5 5 4 4 4 4 4 4 5 5 5 5 5 5 5 5 5 6 7 7 7 7 7
8 8 9 9 9 8 8 8 9 9 8 8 7 7 7 7 7 7 6 5 5 5 5 5 5 5 5 5 6 6 6 5 5 5 5 5 6 6 7 7 7 7 7
9 9 9 9 9 9 9 9 10 10 10 9 8 8 8 8 8 8 7 7 6 6 6 6 6 6 6 6 6 6 6 6 5 5 5 6 6 7 7 7 8 8 8
10 10 10 10 11 10 10 10 11 11 10 10 9 9 9 9 9 8 8 8 8 7 7 6 6 6 7 7 7 6 6 6 6 6 6 7 7 7 7 8 8 8 8
Wind_Direction
175 160 288 343 357 6 9 356 347 349 342 330 329 340 329 311 313 314 310 296 276 288 300 300 294 271 264 263 259 251 244 240 232 234 232 236 243 246 234 224 232 244 236
216 204 259 295 329 343 351 340 332 326 328 324 324 328 325 312 317 309 301 300 291 289 293 297 289 271 266 266 267 267 257 246 238 234 233 234 242 249 232 225 234 239 228
261 261 281 270 293 307 327 335 338 332 329 327 324 312 299 295 306 307 302 300 292 287 286 288 284 270 266 264 271 274 270 256 235 232 232 232 238 249 246 231 230 235 240
288 283 280 270 280 307 318 329 331 332 322 316 313 308 300 293 302 307 306 303 299 285 278 276 277 280 269 263 267 275 280 246 223 221 224 227 237 245 244 240 236 239 238
277 290 273 270 269 292 312 319 316 312 314 313 305 310 300 296 296 301 310 314 307 295 283 275 268 287 289 268 263 260 266 246 223 214 221 230 240 242 243 241 237 242 236
290 296 290 283 273 281 298 303 302 299 306 307 308 303 301 292 287 296 305 311 307 303 293 277 265 284 310 291 268 259 255 248 234 228 229 233 238 239 241 241 242 245 242
302 297 296 294 286 284 282 293 296 298 303 301 302 300 289 288 285 287 302 310 307 301 296 299 284 295 306 303 272 263 253 242 235 226 227 232 239 242 243 245 243 246 248
294 298 296 290 292 282 281 291 299 301 300 295 296 293 287 288 287 293 298 301 303 304 313 315 306 307 308 311 297 267 252 242 235 230 231 236 241 241 245 248 248 252 255
289 289 286 284 287 284 284 286 297 304 305 297 296 296 287 283 281 283 290 288 287 293 300 305 307 308 308 317 312 281 260 250 245 242 239 240 240 239 241 249 255 257 263
287 292 280 279 281 281 287 290 294 304 308 310 306 298 291 285 283 283 281 284 280 281 286 296 295 308 311 311 303 287 269 255 247 245 245 246 242 240 246 252 261 265 266
288 299 295 284 281 280 283 290 295 300 304 308 308 300 293 285 288 285 277 276 275 280 282 287 289 298 300 300 294 284 279 264 252 248 250 251 248 249 254 259 264 268 269
281 289 289 285 280 275 279 288 295 299 302 302 305 301 294 288 287 283 272 267 275 284 285 278 273 280 291 294 289 290 285 271 260 255 251 252 253 256 258 264 267 270 270
274 279 278 279 278 274 273 283 291 297 301 301 304 302 297 292 283 276 265 266 273 283 280 274 280 281 288 285 281 285 285 276 267 259 249 251 253 259 263 268 271 272 270
271 273 278 284 274 271 273 278 283 290 296 295 298 301 292 281 268 263 262 263 267 276 270 274 284 279 279 282 280 280 281 277 266 256 250 253 258 265 271 273 276 275 273
271 268 274 279 279 278 279 279 284 288 292 291 295 299 293 277 264 265 270 266 267 277 278 279 276 281 281 280 277 275 274 267 264 258 260 262 265 267 271 273 276 281 280
266 266 264 268 279 279 277 277 280 284 283 287 299 300 295 282 263 258 261 263 266 273 277 278 281 279 276 279 277 274 272 267 265 260 268 274 276 271 275 281 282 285 280
266 263 261 265 275 277 277 274 273 277 280 286 293 296 292 282 275 278 274 274 266 270 276 280 281 280 276 278 284 281 275 270 270 271 279 282 282 280 282 284 284 284 277
263 260 264 267 270 273 275 271 272 275 283 288 290 290 286 281 274 277 277 283 275 270 274 281 286 281 281 282 286 283 274 266 263 270 279 283 285 283 283 285 282 280 278
259 258 262 265 266 269 272 267 271 278 285 287 290 290 283 282 280 285 287 287 287 280 272 275 287 286 292 292 293 291 281 274 270 272 277 284 287 281 283 287 284 281 282
259 262 264 265 262 262 262 260 267 274 280 284 287 284 284 283 283 286 288 288 288 285 270 271 283 289 293 295 297 295 286 289 279 279 283 286 285 283 285 288 286 282 284
253 254 256 256 255 256 255 257 264 269 275 274 274 276 281 278 279 285 290 293 290 285 272 271 276 281 289 296 300 293 286 294 290 290 289 289 287 288 288 292 292 290 289
252 254 255 258 258 259 258 256 259 265 268 265 261 268 274 273 274 283 293 300 296 293 280 274 278 280 286 297 302 298 293 294 292 295 293 290 285 289 293 296 298 298 294
256 256 258 261 259 258 260 256 256 261 262 259 258 260 266 269 273 275 279 291 295 294 286 277 280 285 281 287 295 297 297 299 299 298 299 299 295 296 299 301 303 303 297
255 254 254 258 255 256 258 255 255 256 255 257 257 259 264 268 269 268 271 278 288 289 285 283 282 282 281 283 289 293 291 292 295 299 301 304 303 302 302 302 304 303 297
253 251 253 255 255 256 256 254 254 254 253 251 253 257 262 268 266 264 266 272 279 282 280 279 285 278 279 284 289 292 288 287 287 289 294 297 297 298 300 301 302 301 299
253 252 256 257 258 257 255 254 252 252 252 249 251 254 258 264 264 261 264 269 274 278 277 274 279 276 276 280 285 288 288 288 286 285 292 297 297 299 303 304 303 303 302
Height
5892 5892 5892 5891 5891 5891 5891 5891 5891 5890 5890 5889 5889 5888 5888 5887 5887 5886 5885 5885 5884 5884 5883 5883 5883 5882 5882 5882 5882 5881 5881 5881 5881 5881 5881 5881 5881 5880 5880 5880 5880 5880 5880
5892 5892 5892 5891 5891 5891 5891 5891 5891 5890 5890 5889 5889 5888 5888 5887 5886 5886 5885 5884 5884 5883 5883 5883 5882 5882 5882 5881 5881 5880 5880 5879 5879 5880 5880 5880 5880 5880 5880 5880 5880 5880 5880
5892 5892 5892 5891 5891 5891 5891 5891 5891 5890 5890 5889 5889 5888 5887 5887 5886 5886 5885 5884 5883 5883 5883 5882 5881 5881 5881 5881 5880 5879 5878 5876 5877 5878 5879 5879 5879 5879 5879 5879 5879 5879 5879
5891 5892 5891 5891 5891 5891 5891 5891 5890 5890 5890 5889 5888 5888 5887 5887 5886 5885 5885 5884 5883 5883 5882 5882 5881 5881 5880 5880 5879 5879 5877 5876 5876 5877 5878 5879 5879 5879 5879 5879 5879 5879 5879
5891 5891 5891 5891 5891 5891 5891 5890 5890 5890 5889 5888 5887 5887 5887 5886 5886 5885 5884 5883 5883 5882 5882 5881 5880 5880 5879 5879 5879 5878 5877 5877 5877 5877 5878 5878 5878 5878 5878 5878 5878 5878 5879
5891 5891 5891 5891 5891 5891 5890 5890 5890 5889 5889 5888 5888 5887 5886 5885 5885 5884 5884 5883 5882 5882 5881 5880 5880 5879 5879 5878 5878 5877 5877 5876 5877 5877 5877 5877 5877 5877 5878 5878 5878 5878 5878
5890 5890 5890 5890 5890 5890 5890 5889 5889 5889 5888 5888 5887 5886 5886 5885 5884 5884 5883 5883 5882 5881 5881 5880 5879 5879 5878 5878 5877 5876 5876 5876 5876 5876 5877 5877 5877 5877 5877 5877 5877 5877 5877
5890 5890 5889 5889 5889 5889 5889 5889 5888 5888 5887 5887 5886 5885 5885 5884 5884 5883 5883 5882 5882 5881 5880 5879 5879 5878 5878 5877 5876 5875 5875 5875 5875 5876 5876 5876 5876 5876 5876 5876 5876 5876 5876
5889 5888 5888 5889 5889 5888 5888 5888 5888 5887 5886 5886 5885 5884 5884 5884 5883 5882 5882 5881 5881 5880 5880 5879 5878 5878 5877 5876 5876 5875 5874 5874 5874 5875 5875 5875 5875 5875 5875 5875 5875 5875 5876
5888 5888 5887 5887 5888 5887 5887 5887 5887 5886 5886 5885 5884 5884 5883 5883 5882 5881 5881 5880 5880 5879 5879 5878 5877 5877 5876 5876 5875 5874 5874 5873 5873 5874 5874 5874 5874 5874 5874 5874 5874 5874 5875
5887 5887 5886 5887 5887 5886 5886 5886 5886 5885 5885 5884 5883 5882 5882 5881 5881 5880 5880 5879 5879 5878 5877 5877 5876 5876 5875 5875 5874 5874 5873 5873 5873 5873 5873 5873 5873 5873 5873 5873 5873 5873 5873
5885 5885 5885 5886 5886 5885 5885 5885 5885 5884 5884 5883 5882 5881 5881 5880 5880 5879 5879 5878 5878 5877 5876 5876 5875 5875 5874 5874 5873 5873 5872 5872 5872 5872 5872 5872 5872 5872 5872 5872 5872 5872 5871
5884 5884 5884 5884 5884 5884 5884 5884 5884 5883 5882 5882 5881 5880 5879 5878 5878 5878 5877 5877 5877 5876 5875 5875 5874 5874 5874 5873 5872 5872 5871 5871 5871 5871 5871 5871 5871 5871 5871 5871 5870 5870 5870
5883 5883 5883 5883 5883 5883 5882 5882 5882 5881 5881 5880 5879 5879 5878 5877 5877 5876 5876 5876 5875 5875 5874 5874 5874 5873 5872 5872 5871 5871 5871 5870 5870 5870 5870 5870 5870 5870 5869 5869 5869 5868 5868
5881 5881 5881 5882 5882 5882 5881 5881 5880 5880 5879 5879 5878 5877 5877 5876 5876 5875 5874 5874 5874 5874 5873 5873 5872 5872 5871 5871 5870 5870 5870 5869 5869 5869 5869 5869 5869 5868 5868 5868 5867 5867 5866
5879 5879 5880 5880 5880 5880 5880 5879 5879 5879 5878 5877 5877 5876 5875 5875 5874 5873 5873 5873 5873 5872 5872 5871 5871 5870 5870 5869 5869 5869 5869 5868 5868 5868 5868 5868 5867 5867 5867 5866 5866 5865 5864
5877 5878 5878 5878 5878 5878 5878 5878 5877 5877 5876 5876 5875 5875 5874 5873 5873 5872 5872 5871 5871 5871 5870 5870 5870 5869 5869 5868 5868 5868 5867 5867 5867 5867 5867 5866 5866 5865 5865 5864 5864 5863 5863
5875 5875 5876 5876 5876 5876 5876 5876 5875 5875 5875 5874 5874 5873 5872 5872 5871 5871 5871 5870 5870 5869 5869 5869 5868 5868 5868 5867 5867 5867 5866 5866 5866 5866 5865 5865 5864 5864 5863 5862 5862 5861 5861
5873 5873 5874 5874 5874 5874 5874 5874 5874 5873 5873 5873 5872 5871 5871 5871 5870 5870 5870 5869 5869 5868 5868 5868 5867 5867 5867 5866 5866 5865 5865 5865 5864 5864 5864 5863 5863 5862 5861 5860 5860 5859 5859
5871 5871 5871 5871 5871 5871 5872 5872 5872 5871 5871 5871 5870 5870 5870 5869 5869 5869 5868 5868 5867 5867 5867 5866 5866 5866 5866 5865 5865 5864 5864 5864 5863 5863 5862 5862 5861 5860 5859 5859 5858 5857 5856
5869 5869 5869 5869 5869 5869 5870 5870 5870 5870 5869 5869 5869 5869 5868 5868 5868 5867 5867 5867 5866 5866 5865 5865 5865 5865 5865 5864 5864 5863 5863 5863 5862 5861 5861 5860 5859 5858 5858 5857 5856 5855 5854
5866 5866 5867 5867 5867 5867 5867 5868 5868 5868 5868 5868 5867 5867 5867 5867 5866 5866 5866 5865 5865 5864 5864 5864 5864 5864 5864 5863 5863 5863 5862 5862 5861 5860 5859 5859 5858 5857 5856 5855 5854 5853 5852
5864 5864 5864 5864 5865 5865 5865 5865 5865 5866 5866 5866 5865 5865 5865 5865 5865 5864 5864 5864 5863 5863 5863 5863 5863 5862 5862 5862 5862 5862 5861 5860 5859 5859 5858 5857 5856 5855 5855 5854 5853 5851 5850
5862 5862 5862 5862 5862 5863 5863 5863 5863 5863 5864 5864 5863 5863 5863 5863 5863 5863 5863 5862 5862 5862 5861 5861 5861 5861 5861 5860 5860 5860 5859 5859 5858 5858 5857 5856 5855 5854 5853 5852 5851 5850 5849
5859 5860 5860 5860 5860 5860 5860 5860 5861 5861 5861 5862 5861 5861 5861 5861 5861 5861 5861 5861 5860 5860 5860 5860 5859 5859 5859 5859 5858 5858 5857 5857 5857 5856 5855 5855 5854 5853 5852 5850 5849 5848 5847
5856 5857 5857 5857 5857 5857 5858 5858 5858 5858 5858 5859 5859 5859 5859 5859 5859 5859 5859 5859 5859 5858 5858 5858 5858 5857 5857 5857 5857 5856 5856 5855 5855 5854 5854 5853 5852 5851 5850 5849 5847 5846 5845